EW0663 Weather Reports


Display with metric or nautical units.
time (UTC)temp
F
wind
direction
speed
MPH
gust
MPH
rain 1hr
in
rain 24hr
in
rain mn
in
humidity
%
barometer
mb
20260505040252 73 163 2.0 12.0 0.00 0.00 0.00 67 1001.7
20260505035244 73 187 2.0 9.0 0.00 0.00 0.00 67 1001.8
20260505033123 73 188 1.0 8.0 0.00 0.00 0.00 65 1001.9
20260505032140 74 203 1.0 6.0 0.00 0.00 0.00 64 1001.8
20260505031146 74 192 1.0 5.0 0.00 0.00 0.00 63 1001.7
20260505030202 74 198 0.0 5.0 0.00 0.00 0.00 61 1001.6
20260505022915 74 191 0.0 1.0 0.00 0.00 0.00 57 1001.2
20260505021903 74 272 0.0 0.0 0.00 0.00 0.00 55 1001.0
20260505020850 74 275 0.0 0.0 0.00 0.00 0.00 54 1000.9
20260505012448 77 277 0.0 0.0 0.00 0.00 0.00 50 1000.4
20260505011457 78 277 0.0 0.0 0.00 0.00 0.00 49 1000.3
20260505010424 78 277 0.0 0.0 0.00 0.00 0.00 48 1000.0
20260505005449 79 277 0.0 0.0 0.00 0.00 0.00 47 1000.0
20260505004421 80 277 0.0 0.0 0.00 0.00 0.00 47 999.9
20260505002250 81 276 0.0 1.0 0.00 0.00 0.00 45 999.6
20260505000116 81 242 0.0 4.0 0.00 0.00 0.00 45 999.6
20260504235058 81 211 0.0 2.0 0.00 0.00 0.00 45 999.6
20260504234054 81 206 0.0 5.0 0.00 0.00 0.00 44 999.7
20260504233055 81 196 0.0 4.0 0.00 0.00 0.00 44 999.8
20260504232117 82 203 0.0 10.0 0.00 0.00 0.00 42 999.7
20260504231122 83 267 1.0 10.0 0.00 0.00 0.00 41 999.7
20260504223958 81 254 1.0 6.0 0.00 0.00 0.00 43 999.8
20260504222929 82 286 1.0 6.0 0.00 0.00 0.00 42 999.8
20260504221916 82 178 0.0 1.0 0.00 0.00 0.00 42 999.9
20260504220902 82 283 1.0 7.0 0.00 0.00 0.00 40 999.8
20260504214743 82 202 1.0 8.0 0.00 0.00 0.00 41 1000.1
20260504213726 82 208 1.0 8.0 0.00 0.00 0.00 43 1000.1
20260504212659 82 142 1.0 8.0 0.00 0.00 0.00 41 1000.3
20260504211658 83 179 2.0 8.0 0.00 0.00 0.00 41 1000.2
20260504210631 84 221 1.0 11.0 0.00 0.00 0.00 40 1000.1
20260504205648 83 199 3.0 14.0 0.00 0.00 0.00 41 1000.3
20260504204655 83 188 3.0 14.0 0.00 0.00 0.00 40 1000.4
20260504203720 85 198 1.0 10.0 0.00 0.00 0.00 39 1000.5
20260504202726 84 321 2.0 10.0 0.00 0.00 0.00 41 1000.5
20260504201722 84 226 2.0 10.0 0.00 0.00 0.00 41 1000.5
20260504200737 83 180 2.0 10.0 0.00 0.00 0.00 41 1000.6
20260504195720 83 197 3.0 10.0 0.00 0.00 0.00 42 1000.7
20260504194655 83 192 3.0 10.0 0.00 0.00 0.00 42 1000.6
20260504193637 84 175 1.0 8.0 0.00 0.00 0.00 41 1000.8
20260504192640 83 319 1.0 5.0 0.00 0.00 0.00 39 1000.8
20260504185337 81 209 4.0 16.0 0.00 0.00 0.00 41 1001.1
20260504184306 81 178 2.0 12.0 0.00 0.00 0.00 45 1001.0
20260504183320 80 190 3.0 12.0 0.00 0.00 0.00 43 1001.1
20260504181141 79 205 3.0 10.0 0.00 0.00 0.00 45 1001.2
20260504180134 79 205 3.0 10.0 0.00 0.00 0.00 44 1001.5
20260504175059 79 205 2.0 8.0 0.00 0.00 0.00 43 1001.5
20260504174112 79 300 2.0 9.0 0.00 0.00 0.00 42 1001.5
20260504173117 79 204 2.0 10.0 0.00 0.00 0.00 44 1001.6
20260504172123 78 188 1.0 10.0 0.00 0.00 0.00 44 1001.7
20260504171137 77 264 2.0 9.0 0.00 0.00 0.00 43 1001.8
20260504170119 77 269 2.0 14.0 0.00 0.00 0.00 46 1001.7
20260504140900 68 192 2.0 14.0 0.00 0.00 0.00 54 1002.5
20260504130747 66 224 3.0 11.0 0.00 0.00 0.00 54 1002.1
20260504110559 66 246 1.0 8.0 0.00 0.00 0.00 53 1002.7
20260504100403 67 219 1.0 6.0 0.00 0.00 0.00 50 1003.1
20260504081229 66 191 1.0 12.0 0.00 0.00 0.00 52 1003.9
20260504080249 66 188 0.0 3.0 0.00 0.00 0.00 53 1004.1
20260504044209 69 213 0.0 0.0 0.00 0.00 0.00 50 1006.5
20260504043138 69 213 0.0 0.0 0.00 0.00 0.00 50 1006.5
20260504042104 70 213 0.0 10.0 0.00 0.00 0.00 49 1006.4